www.pogodaiklimat.ru
Время
(UTC), дата
09 4.07
12 4.07
15 4.07
18 4.07
21 4.07
00 5.07
03 5.07
06 5.07
09 5.07
12 5.07
15 5.07
18 5.07
21 5.07
00 6.07
03 6.07
06 6.07
09 6.07
12 6.07
15 6.07
18 6.07
21 6.07
00 7.07
03 7.07
06 7.07
09 7.07
12 7.07
15 7.07
18 7.07
21 7.07
00 8.07
03 8.07
06 8.07
09 8.07
12 8.07
15 8.07
18 8.07
21 8.07
00 9.07
03 9.07
06 9.07
09 9.07
12 9.07
15 9.07
18 9.07
21 9.07
00 10.07
03 10.07
06 10.07
09 10.07
12 10.07
15 10.07
18 10.07
21 10.07
00 11.07
03 11.07
06 11.07
Ветер
(напр.,м/с)
Видим. Явления Облачность Т
(С)
Тd
(С)
f
(%)
Тe
(С)
Тes
(С)
Комфортность P
(гПа)
Po
(гПа)
Тmin
(С)
Tmax
(С)
R
(мм)
R24
(мм)
S
(см)
С 1 10 км 10/6 600 м
[Cu Sc Ac lent]
+24.9 +17.3 63 +29 +30 душно 1012.5 994.5
штиль 0 10 км в посл. час ливневой дождь 9/8 600 м
[Cb calv Ac trans]
+24.4 +19.4 74 +30 +32 очень
душно
1012.3 994.2
З 1 10 км {ливн. дождь} 10/4 600 м
[Cu Sc Ac trans Ci fib]
+23.8 +17.5 68 +28 +29 душно 1011.6 993.6 0.0
штиль 0 10 км 8/3 600 м
[Sc diur, vesp Ci]
+21.1 +18.0 82 +25 +25 комфорт 1011.8 993.6 +25.8 0.0
штиль 0 н/о дымка 3/0
[Ci fib]
+18.8 +17.9 95 +20 +20 тепло 1012.2 993.8
штиль 0 н/о дымка 8/0
[Ac trans Ci fib]
+17.9 +17.4 97 +18 +18 тепло 1012.5 994.0
штиль 0 4000 м дымка 8/0
[Cc]
+18.3 +17.7 96 +19 +20 тепло 1012.4 994.0 +17.4
штиль 0 10 км 10/0
[Cs]
+23.4 +15.3 60 +28 +37 душно 1011.9 993.8 +17.4
штиль 0 4000 м слаб. ливневой снег 10/8 600 м
[Cb cap Cs]
+22.9 +17.0 69 +28 +31 душно 1011.8 993.7
штиль 0 10 км в посл. час ливневой дождь 9/8 600 м
[Cb cap Ac trans]
+24.4 +17.2 64 +28 +30 душно 1010.9 992.9
штиль 0 10 км 9/6 1000 м
[Cu Sc Ac trans Ci fib]
+25.5 +13.1 46 +27 +29 жарко 1010.1 992.1 0.6
штиль 0 10 км 8/8 600 м
[Sc]
+22.6 +16.5 68 +27 +27 душно 1010.1 992.0 +26.6 0.6
штиль 0 н/о 4/0
[Ci fib]
+19.9 +16.8 82 +22 +22 комфорт 1010.1 991.8
штиль 0 н/о дымка ясно +17.8 +17.0 95 +18 +18 тепло 1010.4 992.0
штиль 0 4000 м дымка ясно +19.5 +17.4 88 +22 +23 комфорт 1010.7 992.4 +17.1
штиль 0 10 км ясно +25.3 +15.6 55 +28 +40 жарко 1010.2 992.2 +17.1
З 1 10 км 5/5 600 м
[Cu med, cong]
+27.2 +13.9 44 +29 +38 жарко 1009.9 992.0
З 1 10 км 8/8 600 м
[Cu med, cong]
+27.6 +14.6 45 +30 +33 жарко 1009.3 991.4
штиль 0 10 км 9/9 600 м
[Cu Sc]
+27.0 +15.2 48 +30 +30 душно 1008.7 990.8
штиль 0 10 км 3/3 600 м
[Sc diur, vesp Ac trans]
+23.2 +17.3 69 +28 +28 душно 1009.0 990.9 +28.4
штиль 0 н/о 3/0
[Ci fib]
+20.1 +16.2 78 +23 +23 комфорт 1009.2 990.9
штиль 0 н/о дымка 3/0
[Ci fib]
+18.1 +16.6 91 +18 +18 тепло 1009.0 990.6
штиль 0 4000 м дымка ясно +20.3 +18.1 87 +23 +25 комфорт 1008.8 990.6 +17.6
Ю 1 10 км 8/8 600 м
[Cu med, cong]
+26.7 +17.1 56 +31 +33 душно 1008.0 990.2 +17.6
ЮВ 1 10 км 8/5 600 м
[Cu hum Ci fib]
+28.4 +16.3 48 +32 +40 душно 1007.2 989.5
ЮВ 1 10 км 8/8 600 м
[Cu Sc]
+30.2 +18.1 48 +35 +37 очень
душно
1005.9 988.3
СЗ 2
{10}
10 км 10/10 600 м
[Cu Sc]
+21.4 +14.4 64 +24 +24 комфорт 1008.0 989.8
С 2 10 км дымка {гроза, ливн. дождь} 10/10 600 м
[Sc]
+19.4 +16.0 81 +22 +22 комфорт 1006.0 987.7 +30.3 3
С 1 н/о в посл. час ливневой дождь {гроза} 10/10 600 м
[Sc diur, vesp]
+18.2 +16.3 89 +20 +20 тепло 1005.6 987.3
С 1 н/о в посл. час ливневой дождь {гроза} 10/10 600 м
[Sc]
+17.9 +15.9 88 +19 +19 тепло 1004.9 986.6
штиль 0 4000 м дымка 8/3 600 м
[Sc Ac trans]
+18.1 +16.1 88 +18 +19 тепло 1003.4 985.1 +17.7 4
В 1 10 км 10/8 600 м
[Sc Ac trans]
+20.8 +16.1 74 +25 +26 комфорт 1002.1 984.0 +17.7 2
штиль 0 10 км 9/5 1000 м
[Sc Ac trans]
+25.0 +18.0 65 +29 +35 душно 1003.2 985.3
штиль 0 10 км 10/6 600 м
[Sc Ac trans Cs]
+26.2 +18.3 62 +31 +34 очень
душно
1003.9 986.2
СЗ 1 10 км 10/8 600 м
[Sc Ac lent]
+24.1 +18.5 71 +29 +29 душно 1004.0 986.1
З 1 2000 м гроза, ливневой дождь 10/10 600 м
[Cb cap]
+16.6 +15.9 96 +17 +17 тепло 1006.2 987.8 +26.9 7
СЗ 2 н/о дымка {гроза, ливн. дождь} 10/10 300 м
[Frnb]
+14.5 +13.5 94 +14 +14 тепло 1007.0 988.4
З 1 н/о ливневой дождь {гроза} 10/10 600 м
[Cb cap]
+13.5 +12.6 94 +14 +14 тепло 1008.4 989.7
СЗ 2 4000 м в посл. час ливневой дождь 10/10 300 м
[Frnb]
+12.7 +11.5 92 +12 +12 по сезону 1009.1 990.3 +12.6 16
штиль 0 4000 м дымка {ливн. дождь} 10/10 300 м
[Frnb]
+13.9 +11.9 88 +13 +13 по сезону 1010.8 992.0 +12.6 11
С 2 10 км 8/8 600 м
[Cu med, cong]
+17.8 +10.7 63 +18 +21 тепло 1012.3 993.8
З 1 10 км 9/8 600 м
[Cu med, cong Ci fib]
+20.0 +9.7 51 +22 +25 комфорт 1013.3 994.9
З 1 10 км 8/8 600 м
[Cu Sc]
+19.1 +10.7 58 +21 +22 комфорт 1013.9 995.4 2
штиль 0 10 км 3/3 600 м
[Sc]
+16.2 +10.0 67 +16 +16 тепло 1015.3 996.7 +21.6
штиль 0 н/о дымка 3/0
[Ci fib]
+13.3 +11.6 89 +13 +13 тепло 1016.9 998.1
штиль 0 н/о дымка ясно +11.4 +10.6 95 +11 +11 прохладно 1018.4 999.3
штиль 0 10 км дымка ясно +13.7 +10.4 80 +13 +15 холодно 1019.2 1000.3 +11.3
СЗ 1 10 км ясно +18.9 +9.8 55 +21 +31 комфорт 1019.4 1000.8 +11.3
З 1 10 км 8/8 600 м
[Cu med, cong]
+20.9 +7.2 41 +23 +27 комфорт 1019.9 1001.4
ЮЗ 1 10 км 5/5 600 м
[Cu med, cong]
+21.6 +5.1 34 +22 +29 комфорт 1019.3 1000.9
штиль 0 10 км 4/4 600 м
[Cu med, cong]
+21.2 +5.8 37 +22 +24 комфорт 1019.3 1000.8
штиль 0 10 км ясно +18.8 +7.0 46 +19 +19 по сезону 1019.8 1001.2 +22.8
штиль 0 н/о 1/1 1000 м
[Sc]
+15.6 +9.8 68 +15 +15 прохладно 1020.2 1001.4
штиль 0 н/о 1/0
[Ac trans]
+16.8 +9.2 61 +17 +17 по сезону 1020.0 1001.3
Ю 1 10 км 4/0
[Ac trans Ci fib]
+17.5 +9.5 59 +19 +20 тепло 1019.8 1001.1 +15.4
ЮВ 1 10 км 9/8 600 м
[Sc Ac trans]
+21.5 +11.9 54 +24 +25 комфорт 1019.3 1000.9 +15.4
Местоположение метеостанции Москва (город Москва, Россия): широта 55.83 долгота 37.62 высота над уровнем моря 156 м.
В архиве по умолчанию представлена погода в Москве за последнюю неделю. Архивные данные за месяц целиком и за предыдущие месяцы, начиная с января 2011 года, Вы можете получить, выбрав интересующий диапазон дат из раскрывающегося списка и нажав кнопку "Найти!".
*Определитесь, кто Вы:
Внимание! Время в таблицах - всемирное. Для получения местного времени необходимо прибавить поправку, которая равна 3 ч.
Смотрите также архив погоды в соседних городах и на ближайших метеорологических станциях:
Партнеры нашего сайта:      
Пояснения к столбцам:
  • Ветер - указаны скорость ветра в м/с - средняя за 10 мин, порывы в срок и между сроками (в фигурных скобках) и направление, откуда дует ветер: С - северный,
  • СВ - северо-восточный, В - восточный, ЮВ - юго-восточный, Ю - южный, ЮЗ - юго-западный, З - западный, СЗ - северо-западный.
  • Видимость - горизонтальная дальность видимости в метрах или километрах. При видимости от 1 до 10 км при отсутствии осадков обычно наблюдается дымка, при ухудшении видимости до 1 км и менее - туман. В сухую погоду видимость может ухудшаться дымом, пылью или мглою.
  • Явления - указаны атмосферные явления, наблюдавшиеся в срок или в последний час перед сроком; фигурными скобками обозначены явления, наблюдавшиеся между сроками (за 1-3 часа до срока); квадратными скобками обозначены град или гололедные отложения с указанием их диаметра в мм.
  • Облачность - указаны через наклонную черту общая и нижняя облачность в баллах и высота нижней границы облаков в метрах; квадратными скобками обозначены формы облаков: Ci - перистые, Cs - перисто-слоистые, Cc - перисто-кучевые, Ac - высококучевые, As - высокослоистые, Sc - слоисто-кучевые, Ns - слоисто-дождевые, Cu - кучевые, Cb - кучево-дождевые. Подробнее классификацию облаков см. в Атласе облаков (PDF).
  • T - Температура воздуха - температура, измеренная на высоте 2 м над землей.
  • Td - Температура точки росы - температура, при понижении до которой содержащийся в воздухе водяной пар достигнет насыщения.
  • f - Относительная влажность воздуха - влажноcть воздуха, измеренная на высоте 2 м над землей.
  • Te - Эффективная температура - температура, которую ощущает одетый по сезону человек в тени. Характеристика душности погоды. При расчете учитывается влияние влажности воздуха и скорости ветра на теплоощущения человека.
  • Tes - Эффективная температура на солнце - температура, которую ощущает человек, с поправкой на солнечный нагрев. Характеристика знойности погоды. Зависит от высоты солнца над горизонтом, облачности и скорости ветра. Ночью, в пасмурную погоду, а также при ветре 12 м/с и более поправка равна нулю.
  • P - Атмосферное давление - приведенное к уровню моря атмосферное давление.
  • Po - Атмосферное давление - измеренное на уровне метеостанции атмосферное давление.
  • Tmin - Минимальная температура - минимум температуры воздуха на высоте 2 м над землей.
  • Tmax - Максимальная температура - максимум температуры воздуха на высоте 2 м над землей.
  • R - Количество осадков - Количество выпавших осадков за период времени, мм. При наведении курсора мыши на число - период времени, за который выпало указанное количество осадков.
  • R24 - Количество осадков - Количество выпавших осадков за 24 часа, мм.
  • S - Снежный покров - Высота снежного покрова, см. При наведении курсора мыши на число - состояние снежного покрова и степень покрытия местности в баллах.